When you browse on this site, cookies collect data to enhance your experience and personalize the content and advertising you see.
Visit our Privacy Policy to learn more. By continuing to use the site, you agree to this use of cookies and data.
  • In Romania
  • List of Countries
  • For 7 days
  • Water Temperature
  • Satellite Maps
  • Weather Map
  • Weather Widgets
  • user-avatar
    Login

    Hourly Weather Luneville

    Today, 22 April, Monday

    Time Temperature Precipitation Wind Pressure Humidity
    00:00 +13°C° 0 mm 3 mps 737 mmHg 64%
    01:00 +12°C° 0 mm 3 mps 737 mmHg 64%
    02:00 +12°C° 0 mm 2 mps 737 mmHg 64%
    03:00 +12°C° 0 mm 2 mps 736 mmHg 63%
    04:00 +12°C° 0 mm 2 mps 736 mmHg 66%
    05:00 +12°C° 0 mm 2 mps 736 mmHg 68%
    06:00 +12°C° 0 mm 2 mps 735 mmHg 69%
    07:00 +14°C° 0 mm 2 mps 735 mmHg 66%
    08:00 +16°C° 0 mm 3 mps 735 mmHg 63%
    09:00 +18°C° 0 mm 3 mps 734 mmHg 60%
    10:00 +20°C° 0 mm 4 mps 734 mmHg 58%
    11:00 +21°C° 0 mm 4 mps 733 mmHg 56%
    12:00 +22°C° 0 mm 5 mps 733 mmHg 53%
    13:00 +23°C° 0 mm 5 mps 732 mmHg 55%
    14:00 +23°C° 0 mm 5 mps 731 mmHg 56%
    15:00 +23°C° 0 mm 4 mps 731 mmHg 58%
    16:00 +21°C° 0 mm 4 mps 730 mmHg 61%
    17:00 +20°C° 0 mm 4 mps 730 mmHg 64%
    18:00 +18°C° 0 mm 4 mps 729 mmHg 68%
    19:00 +17°C° 0 mm 4 mps 729 mmHg 65%
    20:00 +15°C° 0 mm 4 mps 729 mmHg 63%
    21:00 +14°C° 0 mm 4 mps 729 mmHg 61%
    22:00 +13°C° 0 mm 4 mps 729 mmHg 63%
    23:00 +13°C° 0 mm 4 mps 728 mmHg 65%

    Tomorrow, 23 April, Tuesday

    Time Temperature Precipitation Wind Pressure Humidity
    00:00 +12°C° 0 mm 4 mps 728 mmHg 67%
    01:00 +12°C° 0 mm 4 mps 728 mmHg 70%
    02:00 +11°C° 0 mm 3 mps 728 mmHg 72%
    03:00 +10°C° 0 mm 3 mps 727 mmHg 75%
    04:00 +11°C° 0 mm 3 mps 727 mmHg 77%
    05:00 +12°C° 0 mm 2 mps 727 mmHg 79%
    06:00 +12°C° 0 mm 2 mps 727 mmHg 81%
    07:00 +14°C° 0 mm 2 mps 727 mmHg 77%
    08:00 +16°C° 0 mm 2 mps 727 mmHg 74%
    09:00 +18°C° 0 mm 2 mps 727 mmHg 70%
    10:00 +19°C° 0 mm 3 mps 727 mmHg 69%
    11:00 +19°C° 0 mm 3 mps 727 mmHg 68%
    12:00 +20°C° 0 mm 3 mps 727 mmHg 67%
    13:00 +20°C° 0 mm 3 mps 727 mmHg 68%
    14:00 +20°C° 0 mm 2 mps 726 mmHg 68%
    15:00 +20°C° 0 mm 2 mps 726 mmHg 69%
    16:00 +19°C° 0.4 mm 2 mps 726 mmHg 74%
    17:00 +18°C° 0.4 mm 2 mps 726 mmHg 78%
    18:00 +18°C° 0.4 mm 1 mps 726 mmHg 83%
    19:00 +16°C° 0 mm 1 mps 727 mmHg 86%
    20:00 +15°C° 0 mm 2 mps 727 mmHg 88%
    21:00 +14°C° 0 mm 2 mps 727 mmHg 91%
    22:00 +13°C° 0 mm 3 mps 728 mmHg 90%
    23:00 +13°C° 0 mm 3 mps 728 mmHg 90%

    Day after tomorrow, 24 April, Wednesday

    Time Temperature Precipitation Wind Pressure Humidity
    00:00 +13°C° 0 mm 4 mps 728 mmHg 89%
    01:00 +13°C° 0.3 mm 3 mps 729 mmHg 90%
    02:00 +13°C° 0.3 mm 3 mps 729 mmHg 90%
    03:00 +12°C° 0.3 mm 3 mps 729 mmHg 91%
    04:00 +12°C° 0 mm 3 mps 730 mmHg 90%
    05:00 +12°C° 0 mm 3 mps 730 mmHg 89%
    06:00 +12°C° 0 mm 3 mps 730 mmHg 88%
    07:00 +13°C° 0 mm 5 mps 731 mmHg 83%
    08:00 +14°C° 0 mm 7 mps 732 mmHg 79%
    09:00 +15°C° 0 mm 8 mps 732 mmHg 74%
    10:00 +14°C° 0.2 mm 7 mps 732 mmHg 78%
    11:00 +13°C° 0.2 mm 6 mps 732 mmHg 82%
    12:00 +12°C° 0.2 mm 4 mps 732 mmHg 87%
    13:00 +10°C° 2.1 mm 5 mps 733 mmHg 88%
    14:00 +9°C° 2.1 mm 6 mps 733 mmHg 90%
    15:00 +9°C° 2.1 mm 6 mps 733 mmHg 92%
    16:00 +9°C° 1.2 mm 5 mps 733 mmHg 92%
    17:00 +10°C° 1.2 mm 4 mps 734 mmHg 91%
    18:00 +10°C° 1.2 mm 3 mps 735 mmHg 91%
    19:00 +9°C° 0 mm 3 mps 735 mmHg 91%
    20:00 +9°C° 0 mm 3 mps 735 mmHg 91%
    21:00 +8°C° 0 mm 3 mps 735 mmHg 92%
    22:00 +8°C° 0 mm 3 mps 735 mmHg 91%
    23:00 +8°C° 0 mm 3 mps 735 mmHg 90%

    25 April, Thursday

    Time Temperature Precipitation Wind Pressure Humidity
    00:00 +8°C° 0 mm 3 mps 735 mmHg 88%
    01:00 +8°C° 0 mm 3 mps 735 mmHg 89%
    02:00 +8°C° 0 mm 2 mps 734 mmHg 90%
    03:00 +7°C° 0 mm 2 mps 734 mmHg 91%
    04:00 +8°C° 0 mm 2 mps 734 mmHg 90%
    05:00 +10°C° 0 mm 1 mps 734 mmHg 89%
    06:00 +11°C° 0 mm 1 mps 735 mmHg 88%
    07:00 +13°C° 0 mm 2 mps 735 mmHg 78%
    08:00 +14°C° 0 mm 4 mps 735 mmHg 67%
    09:00 +16°C° 0 mm 5 mps 735 mmHg 57%
    10:00 +17°C° 0 mm 6 mps 736 mmHg 56%
    11:00 +17°C° 0 mm 7 mps 736 mmHg 56%
    12:00 +17°C° 0 mm 8 mps 736 mmHg 56%
    13:00 +16°C° 0 mm 7 mps 737 mmHg 61%
    14:00 +15°C° 0 mm 6 mps 737 mmHg 67%
    15:00 +14°C° 0 mm 5 mps 737 mmHg 72%
    16:00 +12°C° 0.4 mm 4 mps 737 mmHg 79%
    17:00 +11°C° 0.4 mm 3 mps 737 mmHg 86%
    18:00 +10°C° 0.4 mm 2 mps 738 mmHg 93%
    19:00 +9°C° 1 mm 2 mps 738 mmHg 94%
    20:00 +9°C° 1 mm 2 mps 739 mmHg 95%
    21:00 +8°C° 1 mm 2 mps 740 mmHg 96%
    22:00 +8°C° 0.3 mm 2 mps 740 mmHg 96%
    23:00 +7°C° 0.3 mm 3 mps 740 mmHg 95%

    26 April, Friday

    Time Temperature Precipitation Wind Pressure Humidity
    00:00 +7°C° 0.3 mm 3 mps 740 mmHg 95%
    01:00 +7°C° 0.1 mm 3 mps 741 mmHg 95%
    02:00 +7°C° 0.1 mm 3 mps 741 mmHg 95%
    03:00 +5°C° 0.1 mm 3 mps 741 mmHg 96%
    04:00 +5°C° 0 mm 3 mps 741 mmHg 95%
    05:00 +6°C° 0 mm 4 mps 742 mmHg 94%
    06:00 +6°C° 0 mm 4 mps 742 mmHg 93%
    07:00 +7°C° 0 mm 5 mps 743 mmHg 88%
    08:00 +8°C° 0 mm 6 mps 743 mmHg 84%
    09:00 +9°C° 0 mm 6 mps 744 mmHg 80%
    10:00 +10°C° 0 mm 6 mps 743 mmHg 77%
    11:00 +11°C° 0 mm 6 mps 743 mmHg 73%
    12:00 +13°C° 0 mm 6 mps 743 mmHg 70%
    13:00 +13°C° 0.1 mm 5 mps 743 mmHg 70%
    14:00 +13°C° 0.1 mm 5 mps 743 mmHg 70%
    15:00 +14°C° 0.1 mm 4 mps 743 mmHg 69%
    16:00 +13°C° 0.2 mm 4 mps 743 mmHg 75%
    17:00 +12°C° 0.2 mm 4 mps 744 mmHg 80%
    18:00 +11°C° 0.2 mm 3 mps 744 mmHg 85%
    19:00 +10°C° 0.1 mm 3 mps 745 mmHg 88%
    20:00 +8°C° 0.1 mm 3 mps 745 mmHg 91%
    21:00 +7°C° 0.1 mm 3 mps 746 mmHg 95%
    22:00 +7°C° 0.1 mm 3 mps 746 mmHg 95%
    23:00 +7°C° 0.1 mm 3 mps 746 mmHg 96%

    27 April, Saturday

    Time Temperature Precipitation Wind Pressure Humidity
    00:00 +7°C° 0.1 mm 3 mps 747 mmHg 96%
    01:00 +7°C° 0 mm 3 mps 747 mmHg 96%
    02:00 +5°C° 0 mm 3 mps 747 mmHg 95%
    03:00 +5°C° 0 mm 3 mps 748 mmHg 95%
    04:00 +5°C° 0 mm 3 mps 748 mmHg 94%
    05:00 +5°C° 0 mm 4 mps 748 mmHg 93%
    06:00 +5°C° 0 mm 4 mps 748 mmHg 92%
    07:00 +6°C° 0.1 mm 5 mps 749 mmHg 88%
    08:00 +7°C° 0.1 mm 5 mps 749 mmHg 85%
    09:00 +8°C° 0.1 mm 6 mps 749 mmHg 82%
    10:00 +9°C° 0.1 mm 6 mps 749 mmHg 81%
    11:00 +9°C° 0.1 mm 6 mps 749 mmHg 81%
    12:00 +9°C° 0.1 mm 6 mps 749 mmHg 81%
    13:00 +10°C° 0 mm 6 mps 749 mmHg 82%
    14:00 +10°C° 0 mm 5 mps 749 mmHg 83%
    15:00 +10°C° 0 mm 5 mps 749 mmHg 84%
    16:00 +10°C° 0 mm 5 mps 749 mmHg 85%
    17:00 +10°C° 0 mm 5 mps 749 mmHg 87%
    18:00 +10°C° 0 mm 4 mps 749 mmHg 89%
    19:00 +10°C° 0 mm 4 mps 749 mmHg 91%
    20:00 +10°C° 0 mm 4 mps 749 mmHg 92%
    21:00 +10°C° 0 mm 4 mps 750 mmHg 94%
    22:00 +10°C° 0 mm 4 mps 750 mmHg 95%
    23:00 +10°C° 0 mm 4 mps 749 mmHg 95%
    Show more